Погода в Азадоглы

Россия / Республика Дагестан     41°49′45″N   48°26′46″E
темп.,
°C
ветер,
м/с
пор.,
м/с
влажн.,
%
обл.,
%
осадки,
мм/ч
давл.,
гПа
погр.,
м
26 июня, вс
вс2600:00+20з2284100 0.1 100711
03:00+20сз12818 0.1 100716
06:00+23з1267100 0.0 1007187
09:00+28ссв224630 0.0 1006836
12:00+29св7542100 0.0 1003657
15:00+28с444161 0.0 1004716
18:00+26ссз3545100 0.0 1004413
21:00+23з3359100 0.0 100537
27 июня, пн
пн2700:00+22з22693 0.0 100622
03:00+22зюз33670 0.0 100540
06:00+23сз34730 0.0 1007262
09:00+31с55400 0.0 10061069
12:00+30с88420 0.0 10061031
15:00+33ссз89340 0.0 10051305
18:00+26ссз611620 0.0 1005372
21:00+23сз39760 0.0 1006296
28 июня, вт
вт2800:00+22сз25790 0.0 1005114
03:00+22сз59710 0.0 1005364
06:00+25сз611540 0.0 1006678
09:00+29ссз1011390 0.0 10061169
12:00+30ссз1012390 0.0 10071250
15:00+27ссз1014510 0.0 1008866
18:00+25ссз814550 0.0 1010959
21:00+22зсз511560 0.0 1011444
29 июня, ср
ср2900:00+21з46610 0.0 101198
03:00+21зюз44550 0.0 101158
06:00+26зсз37390 0.0 1012571
09:00+29с66240 0.0 10121121
12:00+30с65260 0.0 10121150
15:00+29ссв55370 0.0 1012948
18:00+26с44540 0.0 1013527
21:00+20ссз35950 0.0 1014123
30 июня, чт
чт3000:00+19зсз23960 0.1 101578
03:00+18сз22958 0.1 101440
06:00+21ссз338023 0.0 1015497
09:00+25ссв43532 0.0 10141063
12:00+26св64431 0.0 1013993
15:00+25ссв553922 0.0 1013997
18:00+22с454143 0.0 1014654
21:00+18сз236148 0.0 101645